FW5647 Weather Reports


time (UTC)temp
C
wind
direction
speed
KPH
gust
KPH
rain 1hr
cm
rain 24hr
cm
rain mn
cm
humidity
%
barometer
mb
20260905110040 18 79 3.2 6.4 0.00 4.47 0.00 93 1014.7
20260905104555 19 122 0.0 3.2 0.00 4.52 0.00 94 1014.8
20260905103041 19 105 0.0 3.2 0.00 4.52 0.00 95 1014.7
20260905101540 19 115 1.6 4.8 0.00 4.52 0.00 95 1014.6
20260905100042 19 0 0.0 1.6 0.00 4.52 0.00 95 1014.8
20260905094541 19 145 0.0 3.2 0.00 4.52 0.00 95 1014.5
20260905093040 19 112 1.6 3.2 0.00 4.52 0.00 95 1014.5
20260905091552 19 0 0.0 1.6 0.00 4.52 0.00 96 1014.7
20260905090041 19 108 0.0 1.6 0.00 4.52 0.00 96 1014.5
20260905084604 19 146 0.0 0.0 0.00 4.52 0.00 96 1014.8
20260905083040 19 141 0.0 1.6 0.00 4.52 0.00 96 1014.5
20260905081539 19 130 0.0 1.6 0.00 4.52 0.00 96 1014.2
20260905080043 20 0 0.0 1.6 0.00 4.52 0.00 96 1014.1
20260905074545 20 0 0.0 3.2 0.00 4.52 0.00 96 1014.5
20260905073042 20 0 0.0 1.6 0.00 4.52 0.00 96 1014.2
20260905071546 20 0 0.0 1.6 0.00 4.52 0.00 96 1014.3
20260905070104 20 120 0.0 1.6 0.00 4.52 0.00 96 1014.4
20260905064543 20 0 0.0 0.0 0.00 4.52 0.00 96 1014.1
20260905063039 20 0 0.0 0.0 0.00 4.52 0.00 96 1014.1
20260905061540 20 134 0.0 1.6 0.00 4.52 0.00 96 1014.1
20260905060041 20 0 0.0 1.6 0.00 4.52 0.00 96 1014.4
20260905054550 20 0 0.0 3.2 0.00 4.52 0.00 96 1014.4
20260905053049 21 0 0.0 1.6 0.00 4.52 0.00 96 1014.4
20260905051547 21 0 0.0 0.0 0.00 4.52 0.00 96 1014.5
20260905050047 21 0 0.0 1.6 0.00 4.52 0.00 96 1014.5
20260905044549 21 104 0.0 1.6 0.00 4.52 0.00 96 1014.4
20260905043044 20 123 1.6 3.2 0.00 4.52 0.00 95 1014.9
20260905041554 20 0 0.0 0.0 0.00 4.52 0.00 95 1014.6
20260905040056 21 0 0.0 0.0 0.00 4.52 0.00 95 1014.7
20260905034549 21 0 0.0 0.0 0.00 4.52 4.52 95 1015.0
20260905033052 21 117 0.0 1.6 0.00 4.52 4.52 95 1015.0
20260905031549 21 0 0.0 0.0 0.00 4.52 4.52 95 1015.3
20260905030047 21 0 0.0 0.0 0.00 4.52 4.52 95 1015.6
20260905024548 21 0 0.0 0.0 0.00 4.52 4.52 95 1015.6
20260905023047 21 0 0.0 0.0 0.00 4.52 4.52 95 1015.5
20260905021548 21 0 0.0 0.0 0.00 4.52 4.52 95 1015.4
20260905020055 21 0 0.0 0.0 0.00 4.52 4.52 94 1015.2
20260905014541 21 0 0.0 0.0 0.00 4.52 4.52 94 1015.3
20260905013040 21 0 0.0 0.0 0.00 4.52 4.52 94 1015.4
20260905011548 21 0 0.0 0.0 0.00 4.52 4.52 93 1015.4
20260905004543 21 0 0.0 0.0 0.00 4.52 4.52 92 1015.2
20260905003044 22 0 0.0 0.0 0.00 4.52 4.52 92 1015.1
20260905001544 22 0 0.0 0.0 0.00 4.52 4.52 91 1015.1
20260905000044 23 0 0.0 0.0 0.00 4.52 4.52 90 1015.1
20260904234548 23 0 0.0 0.0 0.00 4.52 4.52 88 1015.1
20260904233047 24 0 0.0 0.0 0.00 4.52 4.52 88 1015.1
20260904231549 24 0 0.0 0.0 0.00 4.52 4.52 87 1014.7
20260904230046 24 0 0.0 0.0 0.00 4.52 4.52 87 1014.6
20260904224601 24 0 0.0 0.0 0.00 4.52 4.52 86 1014.6
20260904223042 24 0 0.0 3.2 0.00 4.52 4.52 86 1014.4
20260904221544 24 290 0.0 6.4 0.00 4.52 4.52 85 1014.3
20260904220048 24 314 0.0 6.4 0.00 4.52 4.52 85 1014.1
20260904214546 23 0 0.0 6.4 0.00 4.52 4.52 85 1014.3
20260904213043 23 279 1.6 9.7 0.00 4.52 4.52 85 1014.3
20260904211555 24 293 3.2 12.9 0.00 4.52 4.52 85 1014.3
20260904210053 24 288 0.0 6.4 0.00 4.52 4.52 85 1013.9
20260904204547 23 258 3.2 8.0 0.00 4.78 4.52 87 1014.1
20260904203045 23 260 1.6 6.4 0.00 4.78 4.52 91 1014.0
20260904201545 23 268 1.6 6.4 0.00 4.78 4.52 93 1014.0
20260904200047 22 316 0.0 6.4 0.00 4.78 4.52 95 1013.8
20260904194546 22 240 0.0 6.4 0.00 5.03 4.52 97 1014.2
20260904193050 22 231 1.6 4.8 0.00 5.03 4.52 97 1014.4
20260904191546 21 290 1.6 6.4 0.00 5.03 4.52 96 1014.6
20260904190041 21 243 1.6 8.0 0.00 5.03 4.52 96 1014.8
20260904184541 21 144 1.6 4.8 0.00 5.03 4.52 96 1014.7
20260904183049 21 181 0.0 9.7 0.00 5.03 4.52 96 1015.1
20260904181548 21 267 1.6 6.4 0.00 5.03 4.52 96 1015.2
20260904180043 21 285 3.2 6.4 0.00 5.03 4.52 97 1015.4
20260904174541 21 154 1.6 6.4 0.00 5.03 4.52 97 1015.6
20260904173045 21 250 3.2 4.8 0.00 5.03 4.52 97 1015.6
20260904171552 21 264 3.2 6.4 0.00 5.03 4.52 97 1015.6
20260904170043 21 285 3.2 9.7 0.00 5.03 4.52 97 1015.9
20260904164540 21 106 1.6 3.2 0.03 5.03 4.52 97 1015.3
20260904163046 20 0 1.6 9.7 0.10 5.03 4.52 97 1015.6
20260904161545 20 194 1.6 8.0 0.25 5.03 4.52 97 1015.2
20260904160050 20 243 4.8 11.3 0.38 5.03 4.52 97 1015.4
20260904154542 20 248 3.2 8.0 0.46 5.00 4.50 97 1016.0
20260904153041 20 144 1.6 11.3 0.43 4.93 4.42 97 1016.5
20260904151544 20 163 4.8 11.3 0.43 4.78 4.27 97 1017.6
20260904150045 20 263 1.6 1.6 0.41 4.65 4.14 97 1017.9
20260904144540 20 0 0.0 1.6 0.38 4.55 4.04 97 1017.2
20260904143041 20 103 1.6 1.6 0.41 4.50 3.99 97 1017.1
20260904141543 20 118 1.6 3.2 0.76 4.34 3.84 97 1017.4
20260904140100 20 108 0.0 8.0 1.52 4.24 3.73 97 1017.9
20260904134543 20 271 1.6 4.8 1.42 4.14 3.63 97 1018.2
20260904133047 19 92 0.0 3.2 1.37 4.09 3.58 97 1016.8
20260904131545 19 5 3.2 9.7 0.81 3.53 3.02 97 1017.0
20260904130050 20 333 3.2 6.4 1.83 2.41 1.91 97 1016.7
20260904124544 20 3 3.2 12.9 1.47 2.08 1.57 97 1016.8
20260904123046 20 117 11.3 20.9 1.02 1.60 1.09 97 1016.6
20260904121547 20 356 4.8 9.7 0.05 0.64 0.13 97 1016.0
20260904120042 20 351 3.2 3.2 0.03 0.58 0.08 97 1016.2
20260904114542 20 75 3.2 9.7 0.03 0.58 0.08 97 1016.0
20260904113051 20 119 3.2 9.7 0.03 0.58 0.08 97 1016.4
20260904111550 19 181 1.6 6.4 0.05 0.58 0.08 97 1016.4